Location: Santa Cristina
(46.5667°N, 11.7167°E)
Time: 17:27:51
(UTC+00:00)

IDEFIX/ARIANE 42P - Pass Details

Date: 21 April 2021
Orbit: 785 x 802 km, 98.4° (Epoch: 11 May)

Event Time Altitude Azimuth Distance (km) Brightness Sun altitude
Rises 01:49:18 0° 16° (NNE) 3,297 6.9 -21.8°
Reaches altitude 10° 01:51:39 10° 20° (NNE) 2,366 6.0 -21.5°
Maximum altitude 01:56:51 63° 102° (ESE) 886 2.9 -20.9°
Enters shadow 01:59:38 27° 174° (S) 1,477 3.6 -20.5°
